When you browse on this site, cookies collect data to enhance your experience and personalize the content and advertising you see.
Visit our Privacy Policy to learn more. By continuing to use the site, you agree to this use of cookies and data.
  • In United Kingdom
  • List of Countries
  • For 7 days
  • Water Temperature
  • Weather Map
  • Weather Widgets
  • user-avatar
    Login

    Hourly Weather Kweta

    Today, 16 September, Monday

    Time Temperature Precipitation Wind Pressure Humidity
    00:00 +20°C° 0 mm 2 mps 617 mmHg 16%
    01:00 +20°C° 0 mm 2 mps 617 mmHg 16%
    02:00 +19°C° 0 mm 2 mps 616 mmHg 17%
    03:00 +18°C° 0 mm 2 mps 616 mmHg 17%
    04:00 +19°C° 0 mm 1 mps 616 mmHg 18%
    05:00 +20°C° 0 mm 1 mps 617 mmHg 16%
    06:00 +22°C° 0 mm 1 mps 618 mmHg 14%
    07:00 +23°C° 0 mm 1 mps 619 mmHg 13%
    08:00 +25°C° 0 mm 1 mps 619 mmHg 11%
    09:00 +27°C° 0 mm 1 mps 619 mmHg 9%
    10:00 +28°C° 0 mm 1 mps 620 mmHg 8%
    11:00 +30°C° 0 mm 2 mps 620 mmHg 7%
    12:00 +31°C° 0 mm 2 mps 619 mmHg 6%
    13:00 +32°C° 0 mm 2 mps 619 mmHg 6%
    14:00 +33°C° 0 mm 3 mps 619 mmHg 6%
    15:00 +33°C° 0 mm 3 mps 619 mmHg 6%
    16:00 +32°C° 0 mm 4 mps 618 mmHg 6%
    17:00 +29°C° 0 mm 3 mps 618 mmHg 8%
    18:00 +27°C° 0 mm 2 mps 617 mmHg 9%
    19:00 +25°C° 0 mm 2 mps 617 mmHg 11%
    20:00 +24°C° 0 mm 2 mps 616 mmHg 12%
    21:00 +23°C° 0 mm 2 mps 616 mmHg 13%
    22:00 +23°C° 0 mm 1 mps 616 mmHg 14%
    23:00 +22°C° 0 mm 1 mps 616 mmHg 15%

    Tomorrow, 17 September, Tuesday

    Time Temperature Precipitation Wind Pressure Humidity
    00:00 +21°C° 0 mm 1 mps 615 mmHg 15%
    01:00 +20°C° 0 mm 1 mps 615 mmHg 16%
    02:00 +20°C° 0 mm 1 mps 614 mmHg 17%
    03:00 +19°C° 0 mm 1 mps 614 mmHg 17%
    04:00 +19°C° 0 mm 1 mps 614 mmHg 18%
    05:00 +20°C° 0 mm 1 mps 615 mmHg 16%
    06:00 +22°C° 0 mm 1 mps 616 mmHg 14%
    07:00 +24°C° 0 mm 1 mps 617 mmHg 12%
    08:00 +26°C° 0 mm 1 mps 618 mmHg 10%
    09:00 +28°C° 0 mm 1 mps 619 mmHg 9%
    10:00 +29°C° 0 mm 1 mps 620 mmHg 7%
    11:00 +30°C° 0 mm 1 mps 619 mmHg 6%
    12:00 +31°C° 0 mm 2 mps 619 mmHg 6%
    13:00 +32°C° 0 mm 2 mps 619 mmHg 5%
    14:00 +32°C° 0 mm 2 mps 619 mmHg 5%
    15:00 +33°C° 0 mm 3 mps 619 mmHg 5%
    16:00 +33°C° 0 mm 3 mps 619 mmHg 5%
    17:00 +30°C° 0 mm 2 mps 618 mmHg 7%
    18:00 +28°C° 0 mm 1 mps 618 mmHg 9%
    19:00 +25°C° 0 mm 1 mps 617 mmHg 12%
    20:00 +24°C° 0 mm 1 mps 617 mmHg 13%
    21:00 +22°C° 0 mm 0 mps 617 mmHg 15%
    22:00 +21°C° 0 mm 0 mps 617 mmHg 16%
    23:00 +20°C° 0 mm 0 mps 617 mmHg 18%

    Day after tomorrow, 18 September, Wednesday

    Time Temperature Precipitation Wind Pressure Humidity
    00:00 +22°C° 0 mm 1 mps 617 mmHg 19%
    01:00 +21°C° 0 mm 1 mps 616 mmHg 21%
    02:00 +21°C° 0 mm 1 mps 616 mmHg 24%
    03:00 +20°C° 0 mm 1 mps 616 mmHg 27%
    04:00 +20°C° 0 mm 1 mps 616 mmHg 29%
    05:00 +22°C° 0 mm 1 mps 617 mmHg 27%
    06:00 +24°C° 0 mm 1 mps 619 mmHg 25%
    07:00 +25°C° 0 mm 1 mps 620 mmHg 22%
    08:00 +27°C° 0 mm 1 mps 621 mmHg 20%
    09:00 +29°C° 0 mm 1 mps 621 mmHg 17%
    10:00 +30°C° 0 mm 1 mps 622 mmHg 14%
    11:00 +31°C° 0 mm 2 mps 622 mmHg 12%
    12:00 +32°C° 0 mm 2 mps 621 mmHg 11%
    13:00 +34°C° 0 mm 2 mps 621 mmHg 9%
    14:00 +34°C° 0 mm 2 mps 621 mmHg 9%
    15:00 +34°C° 0 mm 2 mps 621 mmHg 9%
    16:00 +32°C° 0 mm 2 mps 621 mmHg 9%
    17:00 +30°C° 0 mm 2 mps 620 mmHg 12%
    18:00 +28°C° 0 mm 1 mps 620 mmHg 14%
    19:00 +26°C° 0 mm 1 mps 619 mmHg 16%
    20:00 +23°C° 0 mm 0 mps 619 mmHg 19%
    21:00 +22°C° 0 mm 0 mps 619 mmHg 21%
    22:00 +21°C° 0 mm 0 mps 618 mmHg 24%
    23:00 +21°C° 0 mm 0 mps 618 mmHg 24%

    19 September, Thursday

    Time Temperature Precipitation Wind Pressure Humidity
    00:00 +20°C° 0 mm 0 mps 617 mmHg 25%
    01:00 +19°C° 0 mm 0 mps 617 mmHg 26%
    02:00 +19°C° 0 mm 0 mps 617 mmHg 24%
    03:00 +21°C° 0 mm 1 mps 617 mmHg 22%
    04:00 +21°C° 0 mm 1 mps 617 mmHg 20%
    05:00 +22°C° 0 mm 1 mps 618 mmHg 18%
    06:00 +23°C° 0 mm 2 mps 619 mmHg 15%
    07:00 +25°C° 0 mm 2 mps 620 mmHg 13%
    08:00 +27°C° 0 mm 2 mps 620 mmHg 11%
    09:00 +29°C° 0 mm 2 mps 621 mmHg 9%
    10:00 +30°C° 0 mm 2 mps 622 mmHg 7%
    11:00 +31°C° 0 mm 2 mps 621 mmHg 6%
    12:00 +33°C° 0 mm 3 mps 621 mmHg 6%
    13:00 +34°C° 0 mm 3 mps 621 mmHg 5%
    14:00 +34°C° 0 mm 3 mps 621 mmHg 5%
    15:00 +34°C° 0 mm 4 mps 620 mmHg 5%
    16:00 +34°C° 0 mm 4 mps 620 mmHg 5%
    17:00 +30°C° 0 mm 3 mps 620 mmHg 6%
    18:00 +28°C° 0 mm 2 mps 619 mmHg 7%
    19:00 +26°C° 0 mm 1 mps 619 mmHg 8%
    20:00 +25°C° 0 mm 1 mps 618 mmHg 9%
    21:00 +24°C° 0 mm 1 mps 618 mmHg 9%
    22:00 +21°C° 0 mm 0 mps 617 mmHg 9%
    23:00 +20°C° 0 mm 0 mps 617 mmHg 10%

    20 September, Friday

    Time Temperature Precipitation Wind Pressure Humidity
    00:00 +20°C° 0 mm 0 mps 616 mmHg 10%
    01:00 +19°C° 0 mm 0 mps 616 mmHg 10%
    02:00 +19°C° 0 mm 0 mps 616 mmHg 10%
    03:00 +18°C° 0 mm 0 mps 616 mmHg 11%
    04:00 +18°C° 0 mm 0 mps 615 mmHg 11%
    05:00 +22°C° 0 mm 1 mps 617 mmHg 10%
    06:00 +24°C° 0 mm 1 mps 618 mmHg 9%
    07:00 +26°C° 0 mm 1 mps 619 mmHg 7%
    08:00 +27°C° 0 mm 1 mps 620 mmHg 7%
    09:00 +29°C° 0 mm 1 mps 620 mmHg 6%
    10:00 +30°C° 0 mm 1 mps 621 mmHg 5%
    11:00 +31°C° 0 mm 1 mps 620 mmHg 5%
    12:00 +32°C° 0 mm 2 mps 620 mmHg 5%
    13:00 +34°C° 0 mm 2 mps 620 mmHg 4%
    14:00 +34°C° 0 mm 2 mps 620 mmHg 5%
    15:00 +34°C° 0 mm 2 mps 619 mmHg 5%
    16:00 +34°C° 0 mm 3 mps 619 mmHg 6%
    17:00 +30°C° 0 mm 2 mps 619 mmHg 8%
    18:00 +28°C° 0 mm 1 mps 618 mmHg 10%
    19:00 +26°C° 0 mm 1 mps 617 mmHg 13%
    20:00 +25°C° 0 mm 1 mps 617 mmHg 13%
    21:00 +22°C° 0 mm 0 mps 617 mmHg 14%
    22:00 +22°C° 0 mm 0 mps 617 mmHg 15%
    23:00 +21°C° 0 mm 0 mps 616 mmHg 16%

    21 September, Saturday

    Time Temperature Precipitation Wind Pressure Humidity
    00:00 +20°C° 0 mm 0 mps 616 mmHg 16%
    01:00 +20°C° 0 mm 0 mps 615 mmHg 17%
    02:00 +19°C° 0 mm 0 mps 615 mmHg 17%
    03:00 +19°C° 0 mm 0 mps 615 mmHg 18%
    04:00 +18°C° 0 mm 0 mps 615 mmHg 19%
    05:00 +22°C° 0 mm 1 mps 616 mmHg 17%
    06:00 +24°C° 0 mm 1 mps 617 mmHg 15%
    07:00 +26°C° 0 mm 1 mps 619 mmHg 13%
    08:00 +27°C° 0 mm 2 mps 619 mmHg 12%
    09:00 +29°C° 0 mm 2 mps 620 mmHg 11%
    10:00 +31°C° 0 mm 2 mps 620 mmHg 10%
    11:00 +31°C° 0 mm 2 mps 620 mmHg 10%
    12:00 +32°C° 0 mm 2 mps 620 mmHg 9%
    13:00 +33°C° 0 mm 1 mps 620 mmHg 8%
    14:00 +34°C° 0 mm 2 mps 619 mmHg 8%
    15:00 +34°C° 0 mm 2 mps 619 mmHg 8%
    16:00 +34°C° 0 mm 3 mps 619 mmHg 8%
    17:00 +31°C° 0 mm 2 mps 618 mmHg 10%
    18:00 +29°C° 0 mm 1 mps 618 mmHg 13%
    19:00 +27°C° 0 mm 1 mps 617 mmHg 15%
    20:00 +24°C° 0 mm 0 mps 617 mmHg 16%
    21:00 +23°C° 0 mm 0 mps 617 mmHg 16%
    22:00 +22°C° 0 mm 0 mps 617 mmHg 17%
    23:00 +22°C° 0 mm 0 mps 616 mmHg 18%
    Show more